Hourly Data Report for October 01, 2012

All times are specified in Local Standard Time (LST). Add 1 hour to adjust for Daylight Saving Time where and when it is observed.

ST LEONARD CS
NEW BRUNSWICK

47°09'28.050" N
67°49'55.014" W
245.00 m
810I001
71019
WIY

Download Data

Hourly Data (October 2012)
Hourly Data Report for October 1, 2012
Temp Definition
°C
Dew Point Temp Definition
°C
Rel Hum Definition
%
Wind Dir Definition
10's deg

Wind Spd Definition
km/h
Visibility Definition
km
Stn Press Definition
kPa
Hmdx Definition


Wind Chill Definition


Weather Definition


TIME
00:00 14.9 14.3 96 10 11   97.18     LegendNANA
01:00 15.9 15.1 95 16 13   97.22     LegendNANA
02:00 13.9 12.9 94 18 11   97.26     LegendNANA
03:00 13.5 12.2 92 17 11   97.28     LegendNANA
04:00 13.1 11.9 92 16 13   97.31     LegendNANA
05:00 12.1 10.6 91 17 13   97.26     LegendNANA
06:00 11.7 10.2 91 16 11   97.25     LegendNANA
07:00 11.6 10.3 92 16 11   97.28     LegendNANA
08:00 11.9 10.6 92 16 11   97.33     LegendNANA
09:00 13.0 10.2 83 17 9   97.37     LegendNANA
10:00 12.8 10.1 84 16 13   97.38     LegendNANA
11:00 14.3 10.3 77 16 13   97.34     LegendNANA
12:00 13.6 10.7 83 14 9   97.31     LegendNANA
13:00 13.3 10.1 81 15 7   97.28     LegendNANA
14:00 12.7 10.5 86 14 9   97.28     LegendNANA
15:00 12.6 11.4 92 16 9   97.24     LegendNANA
16:00 12.9 11.0 88 25 9   97.27     LegendNANA
17:00 13.9 10.9 82 25 4   97.32     LegendNANA
18:00 12.4 10.6 89 24 2   97.38     LegendNANA
19:00 11.0 9.9 93 20 4   97.46     LegendNANA
20:00 10.6 9.9 95 20 2   97.53     LegendNANA
21:00 10.6 9.6 94 22 4   97.61     LegendNANA
22:00 9.4 8.5 94 21 4   97.64     LegendNANA
23:00 9.6 8.5 93 25 6   97.66     LegendNANA

Notes on Data Quality.

Legend

  • E = Estimated
  • M = Missing
  • NA = Not Available
  • ‡ = Partner data that is not subject to review by the National Climate Archives
Date modified: